User: anonymous   Login
Location: Columbia
(38.9520°N, 92.3340°W)
Time: 02:56:02
(UTC-05:00)
Language:

Cosmos 2100 Rocket - Orbit

View from above orbital plane
View from above orbital plane
View from above satellite
View from above satellite

Ground track
Ground track

The orbit data is extracted from the following two-line orbital elements,

1 20805U 90083B   15107.49493523  .00000217  00000-0  20801-3 0  9992
2 20805 082.9338 288.6794 0031989 085.3382 303.9559 13.75764294234543
Epoch (UTC): 17 April 2015 11:52:42
Eccentricity: 0.0031989
inclination: 82.9338°
perigee height: 955 km
apogee height: 1002 km
right ascension of ascending node: 288.6794°
argument of perigee: 85.3382°
revolutions per day: 13.75764294
mean anomaly at epoch: 303.9559°
orbit number at epoch: 23454

The dashed part of the orbit path shows where the satellite is in the earth's shadow,  

DLR